User: anonymous
Location: Syracuse
(43.0480°N, 76.1480°W)
Time: 15:26:57
(UTC-04:00)
Language:

Cosmos 1140 Rocket - Orbit

View from above orbital plane
View from above orbital plane
View from above satellite
View from above satellite

Ground track
Ground track

The orbit data is extracted from the following two-line orbital elements,

1 11574U 79089B   14258.48040269  .00000266  00000-0  92074-4 0  8296
2 11574 074.0685 275.0455 0014834 073.3302 034.6915 14.40257707832341
Epoch (UTC): 15 September 2014 11:31:46
Eccentricity: 0.0014834
inclination: 74.0685°
perigee height: 747 km
apogee height: 768 km
right ascension of ascending node: 275.0455°
argument of perigee: 73.3302°
revolutions per day: 14.40257707
mean anomaly at epoch: 34.6915°
orbit number at epoch: 83234

The dashed part of the orbit path shows where the satellite is in the earth's shadow,  

DLR